Content
SEND FEEDBACK

Daily
Averages
Monthly
Summary
United States of America

ST. LOUIS, MISSOURI


Home > North America > United States > Missouri
Elevation: 535 feet     Latitude: 38 45N     Longitude: 090 22W

WEATHER
 
SELECT A DAY
Number of Records: 199,900;   Date Range: 1/1/95 - 10/29/14
 
SHARE

PRINT THIS DATA

[ ← Previous Day ]
WEATHER ALMANAC - FEBRUARY 3, 2013
[ Next Day → ]
[ °C ]   °F
Weather ElementAverageHighLow
Temperature28 °F34 °F (2:54 pm)21 °F (7:54 pm)
Dewpoint20.6 °F30.2 °F (12:29 am)12 °F (2:54 pm)
Humidity75.9 %100 % (12:29 am)40 % (2:54 pm)
Barometer30.10 in30.23 in (10:54 am)30.02 in (1:46 am)
Wind Speed5.4 mph19.6 mph (8:54 am)
Wind Gust31.1 mph (7:54 am)
Weather ElementAverage
Visibility6.5 mi
Wind DirectionSE (133.3 °)

Weather ElementTotal
Precipitation0.45 in
Heating Degree Days37.5 (Base 65)
Averaged from 36 records on February 3, 2013
WEATHER CONDITIONS BREAKOUT
WIND DIRECTION BREAKOUT
WEATHER BY HOUR - FEBRUARY 3, 2013
[ °C ]   °F
Local TimeTemperatureDewpointHumidityBarometerVisibilityWind DirectionWind SpeedGust SpeedPrecipitationEventsConditions
12:29 AM30.2 °F30.2 °F100 %30.05 in0.2 miCalm0.09 inFog-SnowHeavy Snow
12:36 AM30.2 °F28.4 °F93 %30.05 in1.0 miSouth (190°)3.5 mph0.09 inSnowLight Snow
12:42 AM30.2 °F28.4 °F93 %30.04 in3.0 miCalm0.09 inSnowLight Snow
12:49 AM30.2 °F28.4 °F93 %30.04 in6.0 miCalm0.09 inOvercast
12:54 AM30.9 °F28.9 °F92 %30.06 in7.0 miCalm0.09 inOvercast
1:46 AM26.6 °F24.8 °F93 %30.02 in1.5 miCalmPartly Cloudy
1:54 AM27.0 °F25.0 °F92 %30.05 in1.5 miCalmPartly Cloudy
2:03 AM26.6 °F24.8 °F93 %30.03 in0.5 miCalmFogLight Freezing Fog
2:11 AM21.2 °F21.2 °F100 %30.03 in0.2 miCalmFogLight Freezing Fog
2:19 AM23.0 °F19.4 °F86 %30.03 in0.2 miCalmFogLight Freezing Fog
2:45 AM21.2 °F19.4 °F93 %30.03 in0.2 miCalmFogLight Freezing Fog
2:52 AM24.8 °F21.2 °F86 %30.03 in0.2 miCalmFogLight Freezing Fog
2:54 AM23.0 °F21.9 °F96 %30.06 in0.2 miCalmFogLight Freezing Fog
3:11 AM23.0 °F21.2 °F93 %30.03 in1.0 miWest (260°)8.1 mphMostly Cloudy
3:14 AM26.6 °F23.0 °F86 %30.03 in3.0 miWest (260°)9.2 mphMostly Cloudy
3:54 AM27.0 °F25.0 °F92 %30.06 in10.0 miWSW (250°)10.4 mphClear
4:54 AM27.0 °F24.1 °F89 %30.07 in10.0 miWSW (250°)10.4 mphPartly Cloudy
5:54 AM30.0 °F25.0 °F82 %30.09 in10.0 miWNW (290°)11.5 mphPartly Cloudy
6:54 AM30.9 °F24.1 °F76 %30.10 in10.0 miWNW (290°)13.8 mphClear
7:54 AM30.9 °F21.0 °F67 %30.14 in10.0 miWNW (290°)17.3 mph31.1 mphScattered Clouds
8:54 AM30.0 °F19.9 °F66 %30.17 in10.0 miWNW (300°)19.6 mph29.9 mphOvercast
9:54 AM30.0 °F19.0 °F64 %30.20 in10.0 miWNW (300°)18.4 mph24.2 mphMostly Cloudy
10:54 AM30.9 °F19.0 °F61 %30.23 in10.0 miWNW (300°)18.4 mphMostly Cloudy
11:54 AM30.9 °F18.0 °F59 %30.23 in10.0 miNW (310°)10.4 mph24.2 mphScattered Clouds
12:54 PM32.0 °F17.1 °F54 %30.23 in10.0 miWNW (300°)13.8 mph21.9 mphPartly Cloudy
1:54 PM33.1 °F15.1 °F48 %30.20 in10.0 miNNW (330°)10.4 mphClear
2:54 PM34.0 °F12.0 °F40 %30.20 in10.0 miNW (320°)6.9 mphClear
3:54 PM33.1 °F15.1 °F48 %30.19 in10.0 miWSW (250°)3.5 mphClear
4:54 PM32.0 °F15.1 °F50 %30.17 in10.0 miCalmPartly Cloudy
5:54 PM27.0 °F14.0 °F58 %30.15 in10.0 miCalmScattered Clouds
6:54 PM27.0 °F15.1 °F61 %30.14 in10.0 miCalmClear
7:54 PM21.0 °F15.1 °F78 %30.13 in10.0 miCalmClear
8:54 PM30.0 °F14.0 °F51 %30.10 in10.0 miSE (140°)3.5 mphClear
9:54 PM25.0 °F15.1 °F66 %30.07 in10.0 miCalmClear
10:54 PM26.1 °F16.0 °F66 %30.05 in10.0 miEast (100°)3.5 mphClear
11:54 PM26.1 °F17.1 °F69 %30.02 in10.0 miENE (70°)3.5 mphClear
Hourly data recorded from KSUS, located miles away from St. Louis, Missouri







STORIES FROM OUR PARTNERS